Location: Kailua
(21.4020°N, 157.7390°W)
Time: 09:33:51
(UTC-10:00)

Envisat - Visible Passes

Search period start: 26 January 2021 00:00
Search period end: 05 February 2021 00:00
Orbit: 764 x 766 km, 98.1° (Epoch: 26 January)

Date Brightness Start Highest point End Pass type
(mag) Time Alt. Az. Time Alt. Az. Time Alt. Az.
26 Jan 3.8 05:46:56 10° NNE 05:51:53 53° E 05:56:49 10° S visible
27 Jan 5.6 05:11:21 10° NE 05:15:01 20° E 05:18:41 10° SE visible
28 Jan 2.9 06:12:11 10° N 06:17:15 76° WNW 06:22:18 10° SSW visible
28 Jan 6.5 18:58:20 10° WSW 19:00:05 12° W 19:01:50 10° WNW visible
29 Jan 4.4 05:35:44 10° NNE 05:40:28 39° E 05:45:11 10° SSE visible
30 Jan 6.0 05:00:45 10° ENE 05:03:34 15° E 05:06:21 10° SE visible
30 Jan 3.5 06:37:53 10° N 06:42:32 38° WNW 06:47:12 10° SW visible
31 Jan 3.1 06:00:46 10° NNE 06:05:51 80° ESE 06:10:56 10° S visible
31 Jan 6.2 18:45:33 10° SW 18:48:37 16° W 18:51:42 10° WNW visible
01 Feb 4.9 05:24:38 10° NE 05:29:02 29° E 05:33:25 10° SSE visible
02 Feb 6.3 04:51:04 10° E 04:52:06 11° E 04:53:08 10° ESE visible
02 Feb 3.1 06:26:17 10° N 06:31:11 51° WNW 06:36:05 10° SSW visible
03 Feb 3.6 05:49:27 10° NNE 05:54:27 59° E 05:59:26 10° S visible
04 Feb 5.4 05:13:42 10° NE 05:17:36 22° E 05:21:29 10° SSE visible
